FW6726 Weather Reports


Display with metric or nautical units.
time (UTC)temp
F
wind
direction
speed
MPH
gust
MPH
rain 1hr
in
rain 24hr
in
rain mn
in
humidity
%
barometer
mb
20260906041311 72 310 4.0 5.0 0.00 0.00 0.00 59 1015.6
20260906040810 71 281 4.0 5.0 0.00 0.00 0.00 61 1015.5
20260906040533 71 296 4.0 5.0 0.00 0.00 0.00 62 1015.5
20260906035810 71 255 3.0 4.0 0.00 0.00 0.00 63 1015.5
20260906035312 71 269 3.0 5.0 0.00 0.00 0.00 62 1015.5
20260906034810 71 266 3.0 5.0 0.00 0.00 0.00 62 1015.5
20260906034312 71 269 4.0 6.0 0.00 0.00 0.00 62 1015.4
20260906034033 71 285 5.0 6.0 0.00 0.00 0.00 61 1015.5
20260906033311 71 286 4.0 5.0 0.00 0.00 0.00 62 1015.4
20260906032811 71 296 3.0 5.0 0.00 0.00 0.00 62 1015.5
20260906032311 71 302 3.0 4.0 0.00 0.00 0.00 62 1015.5
20260906031810 71 282 4.0 4.0 0.00 0.00 0.00 62 1015.4
20260906031311 71 281 3.0 4.0 0.00 0.00 0.00 63 1015.4
20260906030810 71 281 3.0 4.0 0.00 0.00 0.00 63 1015.5
20260906030310 71 244 3.0 4.0 0.00 0.00 0.00 64 1015.5
20260906025810 71 133 2.0 3.0 0.00 0.00 0.00 68 1015.4
20260906025310 71 130 2.0 3.0 0.00 0.00 0.00 69 1015.4
20260906024808 71 130 2.0 3.0 0.00 0.00 0.00 68 1015.4
20260906024310 72 130 0.0 1.0 0.00 0.00 0.00 69 1015.4
20260906023808 72 130 0.0 1.0 0.00 0.00 0.00 70 1015.4
20260906023309 72 130 0.0 1.0 0.00 0.00 0.00 69 1015.5
20260906022807 72 130 0.0 1.0 0.00 0.00 0.00 67 1015.5
20260906022531 73 130 0.0 2.0 0.00 0.00 0.00 67 1015.5
20260906021808 73 130 1.0 2.0 0.00 0.00 0.00 68 1015.4
20260906021310 74 130 0.0 3.0 0.00 0.00 0.00 69 1015.4
20260906020808 74 130 2.0 4.0 0.00 0.00 0.00 69 1015.4
20260906020310 76 130 2.0 4.0 0.00 0.00 0.00 65 1015.3
20260906020033 77 204 1.0 4.0 0.00 0.00 0.00 59 1015.3
20260906015310 77 212 2.0 5.0 0.00 0.00 0.00 58 1015.2
20260906015030 78 210 4.0 5.0 0.00 0.00 0.00 57 1015.2
20260906014308 78 117 0.0 2.0 0.00 0.00 0.00 59 1015.3
20260906013808 78 116 0.0 3.0 0.00 0.00 0.00 62 1015.3
20260906013533 79 116 1.0 3.0 0.00 0.00 0.00 63 1015.4
20260906012807 79 118 1.0 4.0 0.00 0.00 0.00 61 1015.4
20260906012536 79 118 2.0 6.0 0.00 0.00 0.00 59 1015.5
20260906011807 79 193 1.0 6.0 0.00 0.00 0.00 56 1015.4
20260906011308 79 121 2.0 6.0 0.00 0.00 0.00 55 1015.5
20260906010807 80 192 4.0 6.0 0.00 0.00 0.00 52 1015.5
20260906010528 80 182 2.0 5.0 0.00 0.00 0.00 54 1015.7
20260906005807 80 162 2.0 4.0 0.00 0.00 0.00 54 1015.7
20260906005307 80 125 2.0 4.0 0.00 0.00 0.00 54 1015.7
20260906005030 80 127 1.0 5.0 0.00 0.00 0.00 56 1015.7
20260906004307 80 125 2.0 5.0 0.00 0.00 0.00 54 1015.7
20260906003806 80 162 3.0 5.0 0.00 0.00 0.00 54 1015.7
20260906003306 81 147 2.0 5.0 0.00 0.00 0.00 56 1015.7
20260906002806 81 142 2.0 4.0 0.00 0.00 0.00 55 1015.7
20260906002306 81 137 2.0 6.0 0.00 0.00 0.00 55 1015.7
20260906002026 81 162 3.0 6.0 0.00 0.00 0.00 54 1015.7
20260906001306 82 158 4.0 6.0 0.00 0.00 0.00 54 1015.8
20260906000806 82 145 3.0 7.0 0.00 0.00 0.00 53 1015.7
20260906000306 82 155 1.0 7.0 0.00 0.00 0.00 54 1015.7
20260905235805 82 180 4.0 6.0 0.00 0.00 0.00 52 1015.6
20260905235306 82 171 5.0 6.0 0.00 0.00 0.00 51 1015.7
20260905235257 82 125 1.0 7.0 0.00 0.00 0.00 51 1015.7
20260905234306 83 199 5.0 7.0 0.00 0.00 0.00 52 1015.7
20260905233804 83 144 2.0 6.0 0.00 0.00 0.00 53 1015.6
20260905233304 83 151 3.0 6.0 0.00 0.00 0.00 52 1015.7
20260905232804 84 137 2.0 6.0 0.00 0.00 0.00 52 1015.8
20260905232306 84 128 3.0 6.0 0.00 0.00 0.00 52 1015.7
20260905231803 85 141 3.0 5.0 0.00 0.00 0.00 51 1015.7
20260905231304 85 134 2.0 6.0 0.00 0.00 0.00 52 1015.8
20260905231027 85 149 2.0 6.0 0.00 0.00 0.00 52 1015.8
20260905230303 85 149 2.0 6.0 0.00 0.00 0.00 51 1015.9
20260905230021 85 133 2.0 3.0 0.00 0.00 0.00 52 1016.0
20260905225305 85 161 2.0 6.0 0.00 0.00 0.00 53 1016.1
20260905224802 84 134 2.0 6.0 0.00 0.00 0.00 52 1016.2
20260905224302 84 149 2.0 5.0 0.00 0.00 0.00 53 1016.3
20260905223802 83 142 2.0 5.0 0.00 0.00 0.00 53 1016.4
20260905223303 83 118 2.0 7.0 0.00 0.00 0.00 54 1016.4
20260905222801 83 138 2.0 7.0 0.00 0.00 0.00 55 1016.4
20260905222305 82 130 2.0 7.0 0.00 0.00 0.00 56 1016.4
20260905221804 82 133 3.0 9.0 0.00 0.00 0.00 57 1016.4
20260905221304 83 138 5.0 9.0 0.00 0.00 0.00 57 1016.3
20260905220804 83 142 3.0 7.0 0.00 0.00 0.00 56 1016.2
20260905220302 83 102 3.0 7.0 0.00 0.00 0.00 57 1016.2
20260905215802 83 123 3.0 6.0 0.00 0.00 0.00 58 1016.3
20260905215301 83 118 4.0 7.0 0.00 0.00 0.00 56 1016.4
20260905214802 83 93 3.0 7.0 0.00 0.00 0.00 56 1016.3
20260905214301 84 130 3.0 6.0 0.00 0.00 0.00 56 1016.4
20260905214018 84 94 2.0 6.0 0.00 0.00 0.00 56 1016.3
20260905213302 84 137 3.0 6.0 0.00 0.00 0.00 55 1016.4
20260905212802 84 110 3.0 9.0 0.00 0.00 0.00 56 1016.5
20260905212305 84 137 4.0 9.0 0.00 0.00 0.00 55 1016.4
20260905211802 84 123 3.0 6.0 0.00 0.00 0.00 55 1016.4
20260905211302 84 107 2.0 6.0 0.00 0.00 0.00 56 1016.5
20260905211020 84 127 3.0 6.0 0.00 0.00 0.00 55 1016.6
20260905210523 84 144 2.0 6.0 0.00 0.00 0.00 56 1016.5
20260905205801 84 141 3.0 6.0 0.00 0.00 0.00 55 1016.6
20260905205526 84 133 2.0 6.0 0.00 0.00 0.00 55 1016.7
20260905204802 84 120 2.0 6.0 0.00 0.00 0.00 55 1016.7
20260905204302 84 118 2.0 6.0 0.00 0.00 0.00 56 1016.7
20260905203801 84 142 3.0 6.0 0.00 0.00 0.00 56 1016.8
20260905203301 84 131 3.0 6.0 0.00 0.00 0.00 56 1016.8
20260905202802 84 123 4.0 6.0 0.00 0.00 0.00 56 1016.9
20260905202301 83 118 2.0 9.0 0.00 0.00 0.00 57 1016.9
20260905201801 83 121 3.0 9.0 0.00 0.00 0.00 56 1017.0
20260905201300 83 94 4.0 6.0 0.00 0.00 0.00 55 1016.9
20260905200800 83 116 4.0 6.0 0.00 0.00 0.00 53 1016.9
20260905200300 83 131 3.0 5.0 0.00 0.00 0.00 53 1017.0
20260905195801 83 141 2.0 5.0 0.00 0.00 0.00 54 1017.0
20260905195300 83 96 3.0 7.0 0.00 0.00 0.00 54 1017.1
20260905194759 83 111 3.0 7.0 0.00 0.00 0.00 54 1017.1
20260905194300 83 110 3.0 7.0 0.00 0.00 0.00 54 1017.2
20260905193800 83 120 4.0 6.0 0.00 0.00 0.00 54 1017.3
20260905193259 83 130 3.0 6.0 0.00 0.00 0.00 54 1017.3
20260905192800 83 116 3.0 6.0 0.00 0.00 0.00 55 1017.4
20260905192300 82 130 3.0 7.0 0.00 0.00 0.00 55 1017.4
20260905191758 82 123 4.0 7.0 0.00 0.00 0.00 55 1017.4
20260905191745 82 125 2.0 5.0 0.00 0.00 0.00 55 1017.4
20260905190759 82 142 3.0 6.0 0.00 0.00 0.00 55 1017.5
20260905190259 82 116 3.0 6.0 0.00 0.00 0.00 56 1017.6
20260905185758 81 106 3.0 6.0 0.00 0.00 0.00 57 1017.6
20260905185259 81 148 3.0 6.0 0.00 0.00 0.00 57 1017.7
20260905184758 81 99 3.0 6.0 0.00 0.00 0.00 58 1017.7
20260905184257 81 104 2.0 7.0 0.00 0.00 0.00 59 1017.7
20260905183757 80 99 3.0 7.0 0.00 0.00 0.00 60 1017.7
20260905183257 80 124 2.0 7.0 0.00 0.00 0.00 62 1017.7
20260905182757 80 131 3.0 7.0 0.00 0.00 0.00 62 1017.8
20260905182256 79 114 2.0 5.0 0.00 0.00 0.00 63 1017.9
20260905181758 79 127 2.0 9.0 0.00 0.00 0.00 63 1017.8
20260905181257 79 111 4.0 9.0 0.00 0.00 0.00 64 1017.7
20260905180758 78 113 4.0 9.0 0.00 0.00 0.00 64 1017.8
20260905180257 78 96 3.0 9.0 0.00 0.00 0.00 66 1017.7
20260905175758 77 99 3.0 11.0 0.00 0.00 0.00 67 1017.7
20260905175257 76 90 5.0 11.0 0.00 0.00 0.00 68 1017.6
20260905174757 76 93 6.0 11.0 0.00 0.00 0.00 69 1017.6
20260905174256 76 93 7.0 12.0 0.00 0.00 0.00 70 1017.6
20260905174021 75 97 6.0 12.0 0.00 0.00 0.00 71 1017.5
20260905173255 75 93 8.0 12.0 0.00 0.00 0.00 72 1017.4
20260905172755 75 69 8.0 12.0 0.00 0.00 0.00 73 1017.4
20260905172255 74 96 8.0 13.0 0.00 0.00 0.00 74 1017.5
20260905171755 74 90 9.0 13.0 0.00 0.00 0.00 75 1017.4
20260905171256 74 82 9.0 12.0 0.00 0.00 0.00 75 1017.3
20260905170755 73 93 6.0 13.0 0.00 0.00 0.00 77 1017.3
20260905170255 73 102 7.0 13.0 0.00 0.00 0.00 76 1017.3
20260905165755 73 94 9.0 13.0 0.00 0.00 0.00 76 1017.4
20260905165248 73 94 9.0 13.0 0.00 0.00 0.00 77 1017.4
20260905164732 73 103 7.0 13.0 0.00 0.00 0.00 77 1017.3
20260905164231 73 63 9.0 13.0 0.00 0.00 0.00 78 1017.3
20260905163730 72 83 9.0 12.0 0.00 0.00 0.00 78 1017.3
20260905163232 72 83 9.0 12.0 0.00 0.00 0.00 77 1017.2
20260905162733 73 90 9.0 13.0 0.00 0.00 0.00 77 1017.1
20260905162230 73 94 9.0 13.0 0.00 0.00 0.00 76 1017.0
20260905161731 73 89 9.0 12.0 0.00 0.00 0.00 75 1017.0
20260905161231 73 89 8.0 12.0 0.00 0.00 0.00 74 1016.9
20260905160731 73 85 9.0 12.0 0.00 0.00 0.00 74 1016.8
20260905160231 73 92 6.0 10.0 0.00 0.00 0.00 72 1016.7
20260905155730 72 78 5.0 11.0 0.00 0.00 0.00 71 1016.7
20260905155227 72 55 7.0 12.0 0.00 0.00 0.00 72 1016.6
20260905154728 72 65 7.0 12.0 0.00 0.00 0.00 72 1016.6
20260905154451 71 69 6.0 11.0 0.00 0.00 0.00 72 1016.6
20260905153728 71 63 6.0 9.0 0.00 0.00 0.00 74 1016.6
20260905153225 71 66 6.0 9.0 0.00 0.00 0.00 75 1016.7
20260905152726 70 63 7.0 11.0 0.00 0.00 0.00 76 1016.6
20260905152223 70 55 6.0 11.0 0.00 0.00 0.00 76 1016.6
20260905151723 70 71 6.0 9.0 0.00 0.00 0.00 76 1016.5
20260905151223 70 39 7.0 9.0 0.00 0.00 0.00 76 1016.5
20260905150718 69 51 5.0 10.0 0.00 0.00 0.00 76 1016.5
20260905150219 69 44 5.0 10.0 0.00 0.00 0.00 77 1016.4
20260905145928 69 0 6.0 10.0 0.00 0.00 0.00 79 1016.4
20260905145202 68 63 4.0 7.0 0.00 0.00 0.00 80 1016.3
20260905144702 67 41 2.0 6.0 0.00 0.00 0.00 81 1016.2
20260905144202 67 73 2.0 6.0 0.00 0.00 0.00 82 1016.3
20260905143702 66 0 2.0 5.0 0.00 0.00 0.00 84 1016.2
20260905143202 66 0 2.0 5.0 0.00 0.00 0.00 84 1016.1
20260905142702 66 66 2.0 6.0 0.00 0.00 0.00 84 1016.0
20260905142425 65 56 3.0 6.0 0.00 0.00 0.00 85 1016.0
20260905141926 65 68 2.0 5.0 0.00 0.00 0.00 86 1016.0
20260905141204 65 23 1.0 5.0 0.00 0.00 0.00 86 1015.9
20260905140704 64 355 1.0 3.0 0.00 0.00 0.00 86 1015.9
20260905140203 64 37 2.0 4.0 0.00 0.00 0.00 86 1015.9
20260905135702 64 41 2.0 4.0 0.00 0.00 0.00 85 1015.7
20260905135203 64 27 1.0 4.0 0.00 0.00 0.00 85 1015.7
20260905134702 65 353 1.0 4.0 0.00 0.00 0.00 85 1015.5
20260905134203 65 20 2.0 4.0 0.00 0.00 0.00 85 1015.5
20260905133703 65 348 1.0 6.0 0.00 0.00 0.00 86 1015.4
20260905133202 65 72 3.0 10.0 0.00 0.00 0.00 86 1015.4
20260905132702 65 25 4.0 10.0 0.00 0.00 0.00 86 1015.4
20260905132202 65 51 6.0 10.0 0.00 0.00 0.00 85 1015.2
20260905131702 65 18 6.0 12.0 0.00 0.00 0.00 85 1015.2
20260905131202 65 30 6.0 12.0 0.00 0.00 0.00 85 1015.2
20260905130702 65 52 3.0 7.0 0.00 0.00 0.00 85 1015.2
20260905130202 65 0 3.0 7.0 0.00 0.00 0.00 84 1015.2
20260905125702 65 7 4.0 9.0 0.00 0.00 0.00 84 1015.1
20260905125202 65 45 4.0 9.0 0.00 0.00 0.00 84 1015.1
20260905124702 65 3 4.0 10.0 0.00 0.00 0.00 83 1015.1
20260905124202 65 42 5.0 10.0 0.00 0.00 0.00 83 1015.2
20260905123703 65 48 3.0 10.0 0.00 0.00 0.00 82 1015.1
20260905123203 65 37 3.0 7.0 0.00 0.00 0.00 81 1015.0
20260905122702 65 24 4.0 10.0 0.00 0.00 0.00 81 1015.0
20260905122202 65 347 4.0 10.0 0.00 0.00 0.00 81 1015.0
20260905121702 65 65 2.0 4.0 0.00 0.00 0.00 80 1014.9
20260905121202 65 39 2.0 4.0 0.00 0.00 0.00 80 1015.0
20260905120928 66 35 2.0 5.0 0.00 0.00 0.00 79 1014.9
20260905120204 66 320 2.0 5.0 0.00 0.00 0.00 79 1014.9
20260905115705 66 353 2.0 4.0 0.00 0.00 0.00 78 1014.9
20260905115202 66 48 2.0 4.0 0.00 0.00 0.00 77 1014.8
20260905114652 66 51 3.0 4.0 0.00 0.00 0.00 77 1014.8
20260905114155 66 0 0.0 0.0 0.00 0.00 0.00 77 1014.7
20260905113650 66 0 0.0 0.0 0.00 0.00 0.00 77 1014.7
20260905113148 67 0 0.0 2.0 0.00 0.00 0.00 77 1014.7
20260905112910 67 0 0.0 3.0 0.00 0.00 0.00 77 1014.7
20260905112147 66 0 1.0 3.0 0.00 0.00 0.00 77 1014.8
20260905111907 66 0 2.0 3.0 0.00 0.00 0.00 78 1014.8
20260905111147 66 350 1.0 3.0 0.00 0.00 0.00 78 1014.8
20260905110648 66 350 3.0 4.0 0.00 0.00 0.00 78 1014.8
20260905110147 66 353 3.0 4.0 0.00 0.00 0.00 79 1014.8
20260905105647 66 355 2.0 3.0 0.00 0.00 0.00 79 1014.8
20260905105147 65 355 2.0 3.0 0.00 0.00 0.00 80 1014.8
20260905104648 65 355 2.0 3.0 0.00 0.00 0.00 79 1014.9
20260905104146 65 0 2.0 3.0 0.00 0.00 0.00 79 1014.9
20260905103647 66 8 0.0 3.0 0.00 0.00 0.00 79 1014.8
20260905103147 66 8 2.0 3.0 0.00 0.00 0.00 80 1014.9
20260905102646 66 7 1.0 4.0 0.00 0.00 0.00 80 1014.9
20260905102146 66 7 2.0 4.0 0.00 0.00 0.00 81 1014.9
20260905101646 65 3 2.0 3.0 0.00 0.00 0.00 82 1015.0
20260905101147 65 3 2.0 3.0 0.00 0.00 0.00 82 1015.0
20260905100647 65 350 1.0 3.0 0.00 0.00 0.00 82 1015.0
20260905100147 65 350 1.0 3.0 0.00 0.00 0.00 82 1015.1
20260905095646 65 350 1.0 5.0 0.00 0.00 0.00 82 1015.0
20260905095146 65 316 3.0 5.0 0.00 0.00 0.00 82 1015.0
20260905094911 65 307 3.0 5.0 0.00 0.00 0.00 81 1015.0
20260905094146 65 49 1.0 3.0 0.00 0.00 0.00 81 1015.0
20260905093646 65 49 2.0 3.0 0.00 0.00 0.00 82 1015.1
20260905093144 65 49 0.0 4.0 0.00 0.00 0.00 82 1015.1
20260905092645 65 49 3.0 4.0 0.00 0.00 0.00 81 1015.2
20260905092631 65 351 2.0 2.0 0.00 0.00 0.00 80 1015.3
20260905092136 65 351 0.0 1.0 0.00 0.00 0.00 80 1015.3
20260905091146 65 351 0.0 1.0 0.00 0.00 0.00 80 1015.2
20260905090645 65 351 0.0 0.0 0.00 0.00 0.00 80 1015.2
20260905090404 65 351 0.0 2.0 0.00 0.00 0.00 80 1015.3
20260905085645 65 351 1.0 2.0 0.00 0.00 0.00 80 1015.3
20260905085404 65 351 1.0 2.0 0.00 0.00 0.00 80 1015.3
20260905084645 65 351 0.0 0.0 0.00 0.00 0.00 80 1015.4
20260905084146 65 351 0.0 0.0 0.00 0.00 0.00 80 1015.4
20260905083645 65 351 0.0 3.0 0.00 0.00 0.00 80 1015.3
20260905083145 65 351 1.0 3.0 0.00 0.00 0.00 80 1015.3
20260905082903 66 47 0.0 3.0 0.00 0.00 0.00 80 1015.3
20260905082144 66 47 2.0 6.0 0.00 0.00 0.00 80 1015.4
20260905081904 66 47 1.0 6.0 0.00 0.00 0.00 80 1015.4
20260905081144 66 51 5.0 6.0 0.00 0.00 0.00 80 1015.5
20260905080643 65 41 4.0 5.0 0.00 0.00 0.00 80 1015.6
20260905080144 65 109 3.0 10.0 0.00 0.00 0.00 80 1015.6
20260905075643 65 16 6.0 10.0 0.00 0.00 0.00 80 1015.7
20260905075143 66 45 6.0 10.0 0.00 0.00 0.00 79 1015.7
20260905074642 66 34 6.0 10.0 0.00 0.00 0.00 79 1015.8
20260905074143 67 61 4.0 5.0 0.00 0.00 0.00 78 1015.7
20260905073642 67 48 4.0 5.0 0.00 0.00 0.00 77 1015.6
20260905073143 67 47 3.0 4.0 0.00 0.00 0.00 76 1015.5
20260905072641 68 35 2.0 3.0 0.00 0.00 0.00 76 1015.6
20260905072143 68 35 1.0 2.0 0.00 0.00 0.00 76 1015.6
20260905071643 68 35 1.0 2.0 0.00 0.00 0.00 76 1015.5
20260905071143 68 35 1.0 2.0 0.00 0.00 0.00 76 1015.5
20260905070642 68 35 0.0 0.0 0.00 0.00 0.00 76 1015.5
20260905070403 68 35 0.0 3.0 0.00 0.00 0.00 76 1015.5
20260905065643 68 35 0.0 3.0 0.00 0.00 0.00 76 1015.5
20260905065143 68 35 2.0 3.0 0.00 0.00 0.00 76 1015.5
20260905064642 68 35 2.0 3.0 0.00 0.00 0.00 75 1015.4
20260905064359 68 35 2.0 3.0 0.00 0.00 0.00 75 1015.4
20260905063643 68 35 1.0 4.0 0.00 0.00 0.00 75 1015.4
20260905063143 68 35 2.0 4.0 0.00 0.00 0.00 75 1015.3
20260905062642 69 35 3.0 4.0 0.00 0.00 0.00 75 1015.3
20260905062141 69 37 0.0 2.0 0.00 0.00 0.00 75 1015.2
20260905061642 69 37 0.0 0.0 0.00 0.00 0.00 75 1015.3
20260905061407 69 37 0.0 0.0 0.00 0.00 0.00 75 1015.3
20260905060904 69 37 0.0 0.0 0.00 0.00 0.00 74 1015.2
20260905060626 69 37 0.0 0.0 0.00 0.00 0.00 74 1015.2
20260905055640 69 37 0.0 2.0 0.00 0.00 0.00 74 1015.2
20260905055139 69 37 1.0 2.0 0.00 0.00 0.00 74 1015.3
20260905054859 69 340 1.0 2.0 0.00 0.00 0.00 74 1015.3
20260905054140 69 340 0.0 3.0 0.00 0.00 0.00 74 1015.3
20260905053639 69 340 2.0 3.0 0.00 0.00 0.00 74 1015.4
20260905053358 69 340 1.0 4.0 0.00 0.00 0.00 75 1015.3
20260905052905 69 341 2.0 4.0 0.00 0.00 0.00 75 1015.3
20260905052139 69 6 1.0 4.0 0.00 0.00 0.00 75 1015.5
20260905051638 69 6 1.0 4.0 0.00 0.00 0.00 75 1015.5
20260905051405 69 7 2.0 3.0 0.00 0.00 0.00 76 1015.6
20260905050639 69 7 1.0 3.0 0.00 0.00 0.00 75 1015.6
20260905050406 68 7 2.0 3.0 0.00 0.00 0.00 75 1015.5
20260905045640 69 7 1.0 3.0 0.00 0.00 0.00 75 1015.6
20260905045138 69 6 1.0 3.0 0.00 0.00 0.00 75 1015.6
20260905044640 69 6 1.0 2.0 0.00 0.00 0.00 75 1015.6
20260905044138 69 6 1.0 3.0 0.00 0.00 0.00 76 1015.6
20260905043639 69 6 1.0 3.0 0.00 0.00 0.00 76 1015.5
20260905043358 69 0 2.0 3.0 0.00 0.00 0.00 76 1015.5
20260905042904 68 334 2.0 3.0 0.00 0.00 0.00 76 1015.4
20260905042137 68 323 1.0 4.0 0.00 0.00 0.00 76 1015.4
20260905041640 68 323 0.0 5.0 0.00 0.00 0.00 76 1015.4